User: anonymous   Login
Location: Unspecified
(0.0000°N, 0.0000°E)
Time: 11:51:36
(UTC+00:00)
Language:

QBEE50-LTU-OC - Orbit

View from above orbital plane
View from above orbital plane
View from above satellite
View from above satellite

Ground track
Ground track

The orbit data is extracted from the following two-line orbital elements,

1 42708U 98067LR  18168.96657018  .00024253  00000-0  19451-3 0  9996
2 42708  51.6368 351.4386 0001731 190.8115 169.2846 15.70878381 61998
Epoch (UTC): 17 June 2018 23:11:51
Eccentricity: 0.0001731
inclination: 51.6368°
perigee height: 355 km
apogee height: 357 km
right ascension of ascending node: 351.4386°
argument of perigee: 190.8115°
revolutions per day: 15.70878381
mean anomaly at epoch: 169.2846°
orbit number at epoch: 6199

The dashed part of the orbit path shows where the satellite is in the earth's shadow,  

DLR